Today is:



Torrelavega more information Torrelavega


Meteosat more information blitzortung!


Radar lluvias more information rain snow radar


Visita nuestra red de sitios de meteo:

Documentation for the template used

Website of another weatherstation

MeteoibericaRed estaciones Meteorologicas

PaypalWebsite Paypal



Sin Advertencias climatologicas en Cantabria.En este momento tenemos Nivel Verde.    No hay Alarmas

Select another period ( hide this area )

Unidades Período Custom range Directly to
Métrico impérial Tanto
Diario Semana Mensual Anual
use both date-selectors for a custom range
previous Dia
With this date

WeatherUnderground graphs for this period ( click here )


Diario Resumen Lunes 27 January 2020
Tiempo Temp. ( °C ) Dew pt. ( °C ) Viento ( km/h ) desde Ráfagas ( km/h ) Pression baro ( hPa ) Humid.( % ) Rainrate ( cm )
Alto14,2 7,7 11,1 SW ( 103/224 ) 22,5 1010,9 72 -
Media13,0 7,1 3,2 SW #22/69 9,5 1009,6 68 -
Baja11,7 6,4 -   0,0 1007,9 64 -
Diario Tabular details for Lunes 27 January 2020
Tiempo Temp. ( °C ) Dew pt. ( °C ) Viento ( km/h ) desde Ráfagas ( km/h ) Pression baro ( hPa ) Humid.( % ) Rainrate ( cm )
00:00 11,9 6,6   calma 8,0 1009,9 70 -
00:05 11,8 6,5   calma   1009,9 70 -
00:10 11,7 6,4 1,6 SSW 8,0 1009,9 70 -
00:15 11,7 6,4 3,2 SSW 11,3 1010,9 70 -
00:20 11,7 6,6   calma 8,0 1010,9 71 -
00:25 11,8 6,5   calma   1010,9 70 -
00:30 11,8 6,7   calma   1010,9 71 -
00:35 12,0 6,9 1,6 SW 4,8 1010,9 71 -
00:40 12,1 7,0   calma   1010,9 71 -
00:45 12,1 7,0   calma 4,8 1010,9 71 -
00:50 12,1 7,0   calma 4,8 1010,9 71 -
00:55 12,0 6,9 3,2 WSW 8,0 1010,9 71 -
01:00 11,9 6,8 1,6 SSW 8,0 1010,9 71 -
01:05 11,8 6,7   calma 9,7 1010,9 71 -
01:10 11,9 7,0 1,9 SW   1010,9 72 -
01:15 12,0 6,9 1,6 SSW 8,0 1010,9 71 -
01:20 12,1 7,0 4,8 SSW 11,3 1010,9 71 -
01:25 12,3 7,0 4,8 SW 14,5 1010,9 70 -
01:30 12,5 7,2 9,7 SW 16,1 1010,9 70 -
01:35 12,5 7,2 1,6 SW 11,3 1010,9 70 -
01:40 12,3 7,0 3,2 SW 9,7 1010,9 70 -
01:45 12,3 7,0 3,2 SW 11,3 1010,9 70 -
01:50 12,4 7,1 9,7 SSW 16,1 1010,9 70 -
01:55 12,3 7,0 3,2 SSW 11,3 1010,9 70 -
02:00 12,3 7,0 4,8 SSW 12,9 1009,9 70 -
02:05 12,3 7,0 8,0 SSW 12,9 1009,9 70 -
02:10 12,4 6,9 3,2 SW 9,7 1009,9 69 -
02:15 12,5 6,9 3,2 SW 9,7 1009,9 69 -
02:20 12,5 6,9 3,2 SW 9,7 1009,9 69 -
02:25 12,5 6,9 3,2 SW 9,7 1009,9 69 -
02:30 12,5 6,9 3,2 SW 9,7 1009,9 69 -
02:35 12,6 7,1 1,6 SW 8,0 1009,9 69 -
02:40 12,6 6,8   calma 8,0 1009,9 68 -
02:45 12,8 7,1   calma 9,7 1008,9 68 -
02:50 12,8 7,1 3,2 WSW 9,7 1008,9 68 -
02:55 12,9 6,9 3,2 SW 9,7 1008,9 67 -
03:00 13,1 7,1   calma 3,2 1008,9 67 -
03:05 13,3 7,5   calma   1008,9 68 -
03:10 13,3 7,5   calma 3,2 1008,9 68 -
03:15 13,4 7,2 1,6 WSW 4,8 1008,9 66 -
03:20 13,4 7,2   calma 9,7 1008,9 66 -
03:25 13,5 7,1 2,6 NNW 1,9 1008,9 65 -
03:30 13,6 7,2   calma 1,6 1008,9 65 -
03:35 13,7 7,0 3,2 SSW 9,7 1008,9 64 -
03:40 13,7 7,0 3,2 SSW 12,9 1008,9 64 -
03:45 13,8 7,1 1,6 SSW 12,9 1008,9 64 -
03:50 13,9 7,2 4,8 SSW 11,3 1008,9 64 -
03:55 14,0 7,3 1,6 SW 6,4 1008,9 64 -
04:00 14,0 7,3   calma 8,0 1008,9 64 -
04:05 14,0 7,3 4,8 SW 9,7 1008,9 64 -
04:10 13,8 7,1 3,2 SSW 11,3 1008,9 64 -
04:15 13,8 7,1 3,2 SSW 11,3 1008,9 64 -
04:20 13,7 7,0 8,0 SSW 14,5 1008,9 64 -
04:25 13,7 7,2 11,1 SW 5,3 1008,9 65 -
04:30 13,7 7,2 9,7 S 14,5 1008,9 65 -
04:35 13,8 7,3 4,8 S 22,5 1008,9 65 -
04:40 13,8 7,3 9,7 SSW 12,9 1008,9 65 -
04:45 13,9 7,4 9,7 SW 16,1 1007,9 65 -
04:50 13,9 7,4 4,8 SSW 12,9 1007,9 65 -
04:55 13,9 7,4 9,7 SW 14,5 1007,9 65 -
05:00 13,9 7,4 8,0 SW 16,1 1007,9 65 -
05:05 13,9 7,4 3,2 SSW 14,5 1007,9 65 -
05:10 13,8 7,3 3,2 SSW 16,1 1007,9 65 -
05:15 13,8 7,3   calma 9,7 1008,9 65 -
05:20 13,8 7,6 1,6 S 8,0 1008,9 66 -
05:25 14,0 7,7   calma 11,3 1008,9 66 -
05:30 14,0 7,5 8,0 WSW 12,9 1008,9 65 -
05:35 14,0 7,5 3,2 SW 12,9 1008,9 65 -
05:40 14,2 7,7 8,0 SW 19,3 1008,9 65 -
Diario Resumen Lunes 27 January 2020
Tiempo Temp. ( °C ) Dew pt. ( °C ) Viento ( km/h ) desde Ráfagas ( km/h ) Pression baro ( hPa ) Humid.( % ) Rainrate ( cm )
Alto14,2 7,7 11,1 SW ( 103/224 ) 22,5 1010,9 72 -
Media13,0 7,1 3,2 SW #22/69 9,5 1009,6 68 -
Baja11,7 6,4 -   0,0 1007,9 64 -
Diario Tabular details for Lunes 27 January 2020
Tiempo Temp. ( °C ) Dew pt. ( °C ) Viento ( km/h ) desde Ráfagas ( km/h ) Pression baro ( hPa ) Humid.( % ) Rainrate ( cm )
00:00 11,9 6,6   calma 8,0 1009,9 70 -
00:05 11,8 6,5   calma   1009,9 70 -
00:10 11,7 6,4 1,6 SSW 8,0 1009,9 70 -
00:15 11,7 6,4 3,2 SSW 11,3 1010,9 70 -
00:20 11,7 6,6   calma 8,0 1010,9 71 -
00:25 11,8 6,5   calma   1010,9 70 -
00:30 11,8 6,7   calma   1010,9 71 -
00:35 12,0 6,9 1,6 SW 4,8 1010,9 71 -
00:40 12,1 7,0   calma   1010,9 71 -
00:45 12,1 7,0   calma 4,8 1010,9 71 -
00:50 12,1 7,0   calma 4,8 1010,9 71 -
00:55 12,0 6,9 3,2 WSW 8,0 1010,9 71 -
01:00 11,9 6,8 1,6 SSW 8,0 1010,9 71 -
01:05 11,8 6,7   calma 9,7 1010,9 71 -
01:10 11,9 7,0 1,9 SW   1010,9 72 -
01:15 12,0 6,9 1,6 SSW 8,0 1010,9 71 -
01:20 12,1 7,0 4,8 SSW 11,3 1010,9 71 -
01:25 12,3 7,0 4,8 SW 14,5 1010,9 70 -
01:30 12,5 7,2 9,7 SW 16,1 1010,9 70 -
01:35 12,5 7,2 1,6 SW 11,3 1010,9 70 -
01:40 12,3 7,0 3,2 SW 9,7 1010,9 70 -
01:45 12,3 7,0 3,2 SW 11,3 1010,9 70 -
01:50 12,4 7,1 9,7 SSW 16,1 1010,9 70 -
01:55 12,3 7,0 3,2 SSW 11,3 1010,9 70 -
02:00 12,3 7,0 4,8 SSW 12,9 1009,9 70 -
02:05 12,3 7,0 8,0 SSW 12,9 1009,9 70 -
02:10 12,4 6,9 3,2 SW 9,7 1009,9 69 -
02:15 12,5 6,9 3,2 SW 9,7 1009,9 69 -
02:20 12,5 6,9 3,2 SW 9,7 1009,9 69 -
02:25 12,5 6,9 3,2 SW 9,7 1009,9 69 -
02:30 12,5 6,9 3,2 SW 9,7 1009,9 69 -
02:35 12,6 7,1 1,6 SW 8,0 1009,9 69 -
02:40 12,6 6,8   calma 8,0 1009,9 68 -
02:45 12,8 7,1   calma 9,7 1008,9 68 -
02:50 12,8 7,1 3,2 WSW 9,7 1008,9 68 -
02:55 12,9 6,9 3,2 SW 9,7 1008,9 67 -
03:00 13,1 7,1   calma 3,2 1008,9 67 -
03:05 13,3 7,5   calma   1008,9 68 -
03:10 13,3 7,5   calma 3,2 1008,9 68 -
03:15 13,4 7,2 1,6 WSW 4,8 1008,9 66 -
03:20 13,4 7,2   calma 9,7 1008,9 66 -
03:25 13,5 7,1 2,6 NNW 1,9 1008,9 65 -
03:30 13,6 7,2   calma 1,6 1008,9 65 -
03:35 13,7 7,0 3,2 SSW 9,7 1008,9 64 -
03:40 13,7 7,0 3,2 SSW 12,9 1008,9 64 -
03:45 13,8 7,1 1,6 SSW 12,9 1008,9 64 -
03:50 13,9 7,2 4,8 SSW 11,3 1008,9 64 -
03:55 14,0 7,3 1,6 SW 6,4 1008,9 64 -
04:00 14,0 7,3   calma 8,0 1008,9 64 -
04:05 14,0 7,3 4,8 SW 9,7 1008,9 64 -
04:10 13,8 7,1 3,2 SSW 11,3 1008,9 64 -
04:15 13,8 7,1 3,2 SSW 11,3 1008,9 64 -
04:20 13,7 7,0 8,0 SSW 14,5 1008,9 64 -
04:25 13,7 7,2 11,1 SW 5,3 1008,9 65 -
04:30 13,7 7,2 9,7 S 14,5 1008,9 65 -
04:35 13,8 7,3 4,8 S 22,5 1008,9 65 -
04:40 13,8 7,3 9,7 SSW 12,9 1008,9 65 -
04:45 13,9 7,4 9,7 SW 16,1 1007,9 65 -
04:50 13,9 7,4 4,8 SSW 12,9 1007,9 65 -
04:55 13,9 7,4 9,7 SW 14,5 1007,9 65 -
05:00 13,9 7,4 8,0 SW 16,1 1007,9 65 -
05:05 13,9 7,4 3,2 SSW 14,5 1007,9 65 -
05:10 13,8 7,3 3,2 SSW 16,1 1007,9 65 -
05:15 13,8 7,3   calma 9,7 1008,9 65 -
05:20 13,8 7,6 1,6 S 8,0 1008,9 66 -
05:25 14,0 7,7   calma 11,3 1008,9 66 -
05:30 14,0 7,5 8,0 WSW 12,9 1008,9 65 -
05:35 14,0 7,5 3,2 SW 12,9 1008,9 65 -
05:40 14,2 7,7 8,0 SW 19,3 1008,9 65 -

Download your copy of this data-set  here

Our weather-data as stored at Weather Underground. Guión original por Jim McMurry. Adaptado para la plantilla por Leuven-Template.eu

Usted encontrará nuestra información del tiempo también en:

UK Metoffice

WeatherCloud

Weather Underground

AWEKAS

Citizen Weather Observer Program (CWOP)

HAMweather, WeatherForYou, PWS Weather

Tiempo Vistazo

Equipo utilizado:

Weather-program
Weather Display

Weather-server
My Computer

Proveedor
My provider

Weather Display

My Computer

My provider